Regional Weather Roundup
Issued by NWS

Home | Current Version | Previous Version | Text Only | Print | Product List | Glossary On
Versions: 1 2 3 4 5 6 7 8 9 10 11 12 13 14 15 16 17 18 19 20 21 22 23 24 25 26 27 28 29 30 31 32 33 34 35 36 37 38 39 40 41 42 43 44 45 46 47 48 49 50
810
ASUS43 KTOP 212208
RWRKS

WEATHER ROUNDUP FOR KANSAS
NATIONAL WEATHER SERVICE GOODLAND KS
500 PM CDT THU MAY 21 2015

NOTE:  "FAIR" INDICATES FEW OR NO CLOUDS BELOW 12,000 FEET WITH NO
SIGNIFICANT WEATHER AND/OR OBSTRUCTIONS TO VISIBILITY.

KSZ001>006-013>018-027>032-041>047-212300-
NORTHWEST KANSAS

CITY           SKY/WX    TMP DP  RH WIND       PRES   REMARKS
GOODLAND       PTSUNNY   57  44  62 S15G24    30.20F
HAYS           SUNNY     63  39  42 SE10      30.23F
HILL CITY      MOSUNNY   64  41  42 SE10G17   30.23F
RUSSELL        SUNNY     63  41  44 MISG      30.22F
$$

KSZ061>065-074>080-084>089-212300-
SOUTHWEST KANSAS

CITY           SKY/WX    TMP DP  RH WIND       PRES   REMARKS
DODGE CITY     PTSUNNY   60  42  51 E9        30.23F
ELKHART          N/A     56  44  64 SE9         N/A
GARDEN CITY    CLOUDY    59  42  53 E9        30.21F
GREAT BEND     PTSUNNY   63  43  48 SE8       30.23F
LIBERAL        CLOUDY    57  43  58 SE6       30.23F
PRATT          PTSUNNY   61  39  44 E9        30.23F
$$

KSZ066>073-081>083-090>101-212300-
SOUTHEAST KANSAS

CITY           SKY/WX    TMP DP  RH WIND       PRES   REMARKS
CHANUTE        MOSUNNY   64  44  48 E3        30.23F
COFFEYVILLE    MOSUNNY   63  47  55 NE6       30.23F
HUTCHINSON     MOSUNNY   64  42  44 E8        30.23F
MEDICINE LODGE   N/A     64  45  49 E6        30.22F
NEWTON         SUNNY     63  43  48 E7        30.26F
PARSONS        MOSUNNY   63  47  55 VRB3      30.24F
WICHITA INTL   PTSUNNY   64  43  46 E6        30.22F
WICHITA JABRA  MOSUNNY   63  43  48 E6        30.23F
WICHITA MCCONL PTSUNNY   64  43  46 E7        30.23F
WINFIELD       PTSUNNY   63  45  51 E10       30.23F
$$

KSZ007>012-019>026-033>040-048>060-102>105-212300-
NORTHEAST KANSAS

CITY           SKY/WX    TMP DP  RH WIND       PRES   REMARKS
CONCORDIA      SUNNY     65  38  36 SE6       30.24F
EMPORIA        SUNNY     65  41  41 VRB6      30.23F
LAWRENCE       MOSUNNY   68  44  42 NW6       30.23F
MANHATTAN      SUNNY     67  38  34 VRB3      30.23F
MARYSVILLE     SUNNY     68  41  37 CALM      30.22F
OLATHE IND     SUNNY     67  45  45 MISG      30.24F
OLATHE EXE     MOSUNNY   65  44  46 S3        30.22F
SALINA         SUNNY     66  40  38 NE9       30.24F
TOPEKA BILLARD SUNNY     67  42  40 N3        30.23F
TOPEKA FORBES  SUNNY     67  41  38 VRB5      30.23F
$$



USA.gov is the U.S. government's official web portal to all federal, state and local government web resources and services.